This demonstration page uses our WeatherBlox Daily Observations layout. Learn more.

Left ArrowRight Arrow

39.95238, -75.16362

Hourly Observations for February 2, 2017

Temp ( °F °C ) Dew Point ( °F °C ) Humidity (%) Winds ( mph kmh ) Pressure ( in mb ) Visibility ( mi km ) Precip ( " mm )
12:54 am 00:54 Cloudy 40 4.4 24 -4.4 53 53 NNW 6 9 30.07 1018 10 16 0.00 0.00
1:54 am 01:54 Cloudy 39 3.9 23 -5 53 53 Calm 30.08 1019 10 16 0.00 0.00
2:54 am 02:54 Cloudy 38 3.3 25 -3.9 60 60 S 3 6 30.09 1019 10 16 0.00 0.00
3:54 am 03:54 Cloudy 38 3.3 26 -3.3 62 62 SSW 3 6 30.10 1019 10 16 0.00 0.00
4:54 am 04:54 Cloudy 38 3.3 26 -3.3 62 62 SSW 3 6 30.10 1019 10 16 0.00 0.00
5:54 am 05:54 Mostly Cloudy 37 2.8 25 -3.9 62 62 SW 7 11 30.09 1019 10 16 0.00 0.00
6:54 am 06:54 Mostly Cloudy 35 1.7 25 -3.9 67 67 WSW 7 11 30.10 1019 10 16 0.00 0.00
7:54 am 07:54 Mostly Cloudy 39 3.9 27 -2.8 62 62 W 8 13 30.11 1020 10 16 0.00 0.00
8:54 am 08:54 Mostly Cloudy 40 4.4 26 -3.3 58 58 WNW 7 11 30.12 1020 10 16 0.00 0.00
9:54 am 09:54 Mostly Cloudy 40 4.4 26 -3.3 58 58 W 12 19 30.12 1020 10 16 0.00 0.00
10:54 am 10:54 Mostly Cloudy 44 6.7 26 -3.3 49 49 WNW 10 17 30.12 1020 10 16 0.00 0.00
11:54 am 11:54 Mostly Cloudy 44 6.7 22 -5.6 41 41 WNW 15 24 30.10 1019 10 16 0.00 0.00
12:54 pm 12:54 Mostly Cloudy 45 7.2 21 -6.1 39 39 NW 16 26 30.06 1018 10 16 0.00 0.00
1:54 pm 13:54 Mostly Cloudy 46 7.8 20 -6.7 35 35 WNW 18 30 30.06 1018 10 16 0.00 0.00
2:54 pm 14:54 Mostly Cloudy 47 8.3 18 -7.8 31 31 WNW 15 24 30.07 1018 10 16 0.00 0.00
3:54 pm 15:54 Mostly Cloudy 45 7.2 21 -6.1 39 39 W 13 20 30.10 1019 10 16 0.00 0.00
4:54 pm 16:54 Mostly Cloudy 44 6.7 19 -7.2 37 37 NW 17 28 30.12 1020 10 16 0.00 0.00
5:54 pm 17:54 Mostly Cloudy 40 4.4 21 -6.1 47 47 WNW 13 20 30.15 1021 10 16 0.00 0.00
6:54 pm 18:54 Partly Cloudy 40 4.4 17 -8.3 40 40 WNW 12 19 30.18 1022 10 16 0.00 0.00
7:54 pm 19:54 Partly Cloudy 38 3.3 16 -8.9 41 41 WNW 15 24 30.20 1023 10 16 0.00 0.00
8:54 pm 20:54 Mostly Cloudy 37 2.8 12 -11.1 36 36 WNW 15 24 30.22 1023 10 16 0.00 0.00
9:54 pm 21:54 Mostly Cloudy 36 2.2 10 -12.2 34 34 WNW 15 24 30.24 1024 10 16 0.00 0.00
10:54 pm 22:54 Partly Cloudy 35 1.7 4 -15.6 27 27 NW 15 24 30.25 1024 10 16 0.00 0.00
11:54 pm 23:54 Mostly Cloudy 34 1.1 3 -16.1 27 27 NW 15 24 30.25 1024 10 16 0.00 0.00

Powered by AerisWeather